Location: Beneden-Haastrecht
(52.0012°N, 4.7557°E)
Time: 02:54:19
(UTC+00:00)

Cosmos 2263 Rocket - Pass Details

Date: 24 October 2020
Orbit: 822 x 850 km, 71.0° (Epoch: 24 November)

Event Time Altitude Azimuth Distance (km) Brightness Sun altitude
Rises 18:15:35 0° 329° (NNW) 3,416 5.8 -17.3°
Reaches altitude 10° 18:18:29 10° 343° (NNW) 2,482 4.9 -17.7°
Maximum altitude 18:23:09 25° 37° (NE) 1,656 3.4 -18.4°
Enters shadow 18:24:11 24° 54° (NE) 1,706 3.4 -18.6°
